Location: Unspecified
(0.0000°N, 0.0000°E)
Time: 16:22:38
(UTC+00:00)

Vanguard 3 - Pass Details

Date: 19 November 2019
Orbit: 508 x 3263 km, 33.3° (Epoch: 12 December)

Event Time Altitude Azimuth Distance (km) Brightness Sun altitude
Rises 09:53:19 0° 232° (SW) 4,868 11.0 56.4°
Reaches altitude 10° 09:55:59 10° 230° (SW) 4,176 10.8 56.9°
Maximum altitude 10:08:24 83° 142° (SE) 2,631 11.2 59.3°
Drops below altitude 10° 10:27:54 10° 56° (NE) 6,179 11.8 62.8°
Sets 10:32:50 0° 55° (NE) 7,220 12.0 63.7°
